Hourly Data Report for December 05, 2020

CARBERRY CS
MANITOBA
Current Station Operator: ECCC - MSC

49°54'20.900" N
99°21'26.800" W
383.50 m
5010547
71170
WZE

Download Data

Hourly Data (December 2020)
Hourly Data Report for December 5, 2020
TIME
LST
Temp Definition
°C
Dew Point Definition
°C
Rel Hum Definition
%
Precip. Amount Definition
mm

Wind Dir Definition
10's deg

Wind Spd Definition
km/h
Visibility Definition
km
Stn Press Definition
kPa
Hmdx Definition


Wind Chill Definition


Weather Definition


00:00 -4.7 -6.4 88 0.0 27 16   97.28   -10 LegendNANA
01:00 -3.5 -5.6 86 0.0 26 18   97.29   -9 LegendNANA
02:00 -3.4 -5.6 85 0.0 25 15   97.26   -9 LegendNANA
03:00 -3.3 -5.7 84 0.0 26 20   97.26   -9 LegendNANA
04:00 -3.4 -5.8 84 0.0 27 24   97.26   -10 LegendNANA
05:00 -3.8 -6.0 84 0.0 28 23   97.30   -11 LegendNANA
06:00 -2.9 -5.4 83 0.0 28 27   97.26   -10 LegendNANA
07:00 -3.6 -5.6 86 0.0 30 19   97.39   -10 LegendNANA
08:00 -4.9 -6.3 90 0.0 27 15   97.38   -10 LegendNANA
09:00 -4.0 -5.7 88 0.0 27 17   97.39   -10 LegendNANA
10:00 -1.8 -4.7 81 0.0 28 18   97.48   -7 LegendNANA
11:00 0.7 -3.0 76 0.0 29 15   97.51     LegendNANA
12:00 3.4 -2.0 68 0.0 28 15   97.51     LegendNANA
13:00 4.5 -1.4 66 0.0 27 17   97.46     LegendNANA
14:00 4.6 -1.8 63 0.0 25 12   97.45     LegendNANA
15:00 5.4 -1.6 61 0.0 26 14   97.44     LegendNANA
16:00 3.9 -2.2 64 0.0 26 11   97.43     LegendNANA
17:00 0.7 -3.1 76 0.0 26 14   97.47     LegendNANA
18:00 -0.2 -3.5 78 0.0 26 10   97.47   -4 LegendNANA
19:00 -0.4 -3.3 80 0.0 24 6   97.46   -2 LegendNANA
20:00 -1.1 -3.6 83 0.0 22 7   97.42   -4 LegendNANA
21:00 -1.8 -3.9 85 0.0 22 8   97.38   -5 LegendNANA
22:00 -0.7 -3.1 84 0.0 24 7   97.34   -3 LegendNANA
23:00 -1.6 -3.0 90 0.0 25 12   97.29   -6 LegendNANA

Notes on Data Quality.

Legend

  • E = Estimated
  • M = Missing
  • NA = Not Available*
  • [empty] = Indicates an unobserved value
Date modified: